Regional Weather Roundup
Issued by NWS

Home | Current Version | Previous Version | Graphics & Text | Print | Product List | Glossary On
Versions: 1 2 3 4 5 6 7 8 9 10 11 12 13 14 15 16 17 18 19 20 21 22 23 24 25 26 27 28 29 30 31 32 33 34 35 36 37 38 39 40 41 42 43 44 45 46 47 48 49 50
000
ASUS43 KDMX 200901
RWRIA

WEATHER ROUNDUP FOR IOWA
NATIONAL WEATHER SERVICE DES MOINES IA
400 AM CDT SUN MAY 20 2018

NOTE: "FAIR" INDICATES FEW OR NO CLOUDS BELOW 12,000 FEET WITH NO
SIGNIFICANT WEATHER AND/OR OBSTRUCTIONS TO VISIBILITY.

* - THESE STATIONS ARE NOT NWS STATIONS...THUS NOT UNDER NWS
QUALITY CONTROL.  THEY ALSO DO NOT REPORT WEATHER SUCH
AS PRECIPITATION OR FOG.

IAZ001>003-012>014-020>022-031>034-043>046-201000-
   NORTHWEST IOWA

CITY           SKY/WX    TMP DP  RH WIND       PRES   REMARKS
CARROLL *      CLOUDY   N/A N/A N/A NE12      30.05S
CHEROKEE *     CLOUDY    51  51  97 N6        30.09S
DENISON *      CLOUDY    54  52  94 NE12      30.06F
LE MARS *      CLOUDY    54  50  87 N12       30.10S
ORANGE CITY *  CLOUDY    52  48  87 NE8       30.10F
SHELDON *        N/A     50  50 100 NE12      30.09F
SIOUX CITY     CLOUDY    54  50  86 N7        30.09R
SPENCER        CLOUDY    52  46  80 NE15      30.11R
STORM LAKE *   CLOUDY    50  48  93 NE17G25   30.07S
$$

IAZ055>058-069>071-079>083-090>094-201000-
   SOUTHWEST IOWA

CITY           SKY/WX    TMP DP  RH WIND       PRES   REMARKS
ATLANTIC *     CLOUDY    57  55  94 NE15      30.03S
AUDUBON *      MOCLDY    55  52  88 NE8       30.05S
CLARINDA *       N/A     57  55  94 N8        30.03R
COUNCIL BLFS * CLOUDY    57  57 100 NE12      30.04R
CRESTON *      CLEAR     59  55  88 NE12G17   30.03R
HARLAN  *      PTCLDY    55  55 100 NE12      30.07S
LAMONI         CLOUDY    59  57  93 N8        30.00R
RED OAK *      CLEAR     57  55  94 NE13G18   30.02S
SHENANDOAH *   PTCLDY    57  55  94 N7        30.03R
$$

IAZ047>049-059>061-072>074-084-201000-
   CENTRAL IOWA

CITY           SKY/WX    TMP DP  RH WIND       PRES   REMARKS
AMES           CLOUDY    57  49  74 N12       30.03R
ANKENY *       CLOUDY    59  54  82 N10       30.03R
BOONE *        CLOUDY    55  48  76 NE13G21   30.03R
CHARITON *     PTCLDY    59  59 100 N5        30.00R FOG
DES MOINES     CLOUDY    60  54  80 N12       30.01R
GRINNELL*      CLOUDY    60  57  89 N8        30.01R
KNOXVILLE *    CLOUDY    61  59  94 N8        29.98R
MARSHALLTOWN   CLOUDY    57  52  83 N16       30.01R
NEWTON *       CLOUDY    59  55  88 N10       30.00R
PELLA *        CLOUDY    62  59  91 N6        30.00R
PERRY *        CLOUDY    57  53  86 N10       30.04R
$$

IAZ004>006-015-016-023>025-035-036-201000-
   NORTH CENTRAL IOWA

CITY           SKY/WX    TMP DP  RH WIND       PRES   REMARKS
ALGONA *       CLOUDY    50  46  87 NE16G22   30.09S
CLARION *      CLOUDY    52  46  82 NE17      30.05F
ESTHERVILLE    CLOUDY    49  44  83 NE20      30.09R
FORT DODGE *   CLOUDY    51  48  89 NE7       30.06F
MASON CITY     LGT RAIN  51  43  74 NE14      30.10R
FOREST CITY *  CLOUDY    50  45  81 NE17      30.09S
IOWA FALLS *   CLOUDY    54  48  81 N10G17    30.04F
$$

IAZ007>011-017>019-026>030-037>042-050>054-066-201000-
   NORTHEAST IOWA

CITY           SKY/WX    TMP DP  RH WIND       PRES   REMARKS
CEDAR RAPIDS   MOCLDY    65  63  93 NE6       29.96F
CHARLES CITY * CLOUDY    52  45  76 NE17      30.07R
CLINTON *      FAIR      64  60  87 E12       30.00R
DECORAH *      CLOUDY    50  46  87 N9G18     30.07R
DUBUQUE        CLOUDY    59  57  93 NE9       30.01R
MONTICELLO *   CLOUDY    64  63  94 N12       29.99R
OELWEIN *      MOCLDY    54  50  87 NE15      30.02S
WATERLOO       CLOUDY    54  50  86 N10       30.02S
$$

IAZ064-065-067-068-078-201000-
   EAST CENTRAL IOWA

CITY           SKY/WX    TMP DP  RH WIND       PRES   REMARKS
DAVENPORT      FAIR      65  60  84 E12       30.00R
IOWA CITY      FAIR      65  63  93 CALM      29.98R
MUSCATINE *    MOCLDY    64  63  94 CALM      29.97R
QUAD CITIES    MOCLDY    67  63  87 E8        29.98R
$$

IAZ062-063-075>077-085>089-095>099-201000-
   SOUTHEAST IOWA

CITY           SKY/WX    TMP DP  RH WIND       PRES   REMARKS
BURLINGTON     PTCLDY    65  63  93 VRB3      29.97R
FAIRFIELD *    CLOUDY    64  64 100 N8        29.95R FOG
FORT MADISON * PTCLDY    66  64  94 CALM      29.98S
KEOKUK *       PTCLDY    64  64 100 CALM      29.97S
OSKALOOSA *    FAIR      61  60  97 NW7       29.98R FOG
CENTERVILLE *    N/A     63  63 100 CALM      29.99S
OTTUMWA        CLEAR     61  60  97 NW7       29.96S FOG
WASHINGTON *   CLOUDY    63  63 100 E3        29.97S FOG
$$

ABBREVIATIONS USED IN REMARKS
   TC - TEMPERATURES IN CELSIUS
  WCI - WIND CHILL INDEX
   HX - HEAT INDEX
  VSB - VISIBILITY
$$





USA.gov is the U.S. government's official web portal to all federal, state and local government web resources and services.